Regional Weather Roundup
Issued by NWS

Home | Current Version | Previous Version | Graphics & Text | Print | Product List | Glossary On
Versions: 1 2 3 4 5 6 7 8 9 10 11 12 13 14 15 16 17 18 19 20 21 22 23 24 25 26 27 28 29 30 31 32 33 34 35 36 37 38 39 40 41 42 43 44 45 46 47 48 49 50
000
ASUS43 KLOT 041700
RWRIL

ILLINOIS REGIONAL WEATHER ROUNDUP
NATIONAL WEATHER SERVICE CHICAGO/ROMEOVILLE IL
1200 PM CDT MON MAY 04 2015

NOTE: "FAIR" INDICATES FEW OR NO CLOUDS BELOW 12,000 FEET WITH NO
SIGNIFICANT WEATHER AND/OR OBSTRUCTIONS TO VISIBILITY.

* THESE STATIONS ARE NOT UNDER NWS QUALITY CONTROL. THEY ALSO MAY NOT
  REPORT WEATHER SUCH AS PRECIPITATION OR FOG.

ILZ001-002-007-009-015-016-024-041800-
NORTHWEST ILLINOIS

CITY           SKY/WX    TMP DP  RH WIND       PRES   REMARKS
MOLINE         PTSUNNY   75  62  64 N3        30.09R
STERLING*      CLOUDY    68  61  77 E6        30.12R
$$

ILZ003-004-008-010-011-017-018-041800-
NORTH CENTRAL ILLINOIS

CITY           SKY/WX    TMP DP  RH WIND       PRES   REMARKS
ROCKFORD       CLOUDY    70  57  63 VRB3      30.12S
$$

ILZ005-006-012>014-019>023-041800-
NORTHEAST ILLINOIS

CITY           SKY/WX    TMP DP  RH WIND       PRES   REMARKS
CHICAGO-OHARE  CLOUDY    69  58  67 NW9       30.09S
CHICAGO-MIDWAY PTSUNNY   73  58  59 VRB6      30.10R
AURORA         PTSUNNY   69  60  73 NW7       30.11R
WAUKEGAN       PTSUNNY   69  57  65 VRB5      30.10R
DUPAGE AIRPORT CLOUDY    69  60  73 W8        30.10S
WHEELING       PTSUNNY   70  57  63 W10       30.11R
NORTHERLY ISL    N/A     70  55  59 W8          N/A
$$

LMZ740>746-041800-
SOUTHERN LAKE MICHIGAN

STATION/POSITION SKY/WX   TEMP    WIND        PRES    VSBY  WAVE
                          AIR SEA DIR/SP/G                  HT/PER
                          (F)     (DEG/KT/KT) (MB)    (MI)  (FT/S)
HARRISON CRIB              66     260/  9/ 10   N/A
BURNHAM HARBOR             71     280/  5/ 10   N/A
CALUMET HARBOR             69     230/  3/  6   N/A
BURNS HARBOR               61     320/  4/  7 1019.6R
MICHIGAN CITY              62     230/  9/ 10   N/A
MICHIGAN CITY 6N           55 49  240/  6/  6   N/A           1
ST. JOSEPH                 52 48  250/  6/  6   N/A           1/ 3
$$

ILZ025>027-034>036-040-047-049-050-058-095>099-041800-
WEST-CENTRAL ILLINOIS

CITY           SKY/WX    TMP DP  RH WIND       PRES   REMARKS
QUINCY         PTSUNNY   76  59  55 W8        30.09R
$$

ILZ028>032-037-038-041>044-048-051>054-059>061-041800-
CENTRAL ILLINOIS

CITY           SKY/WX    TMP DP  RH WIND       PRES   REMARKS
DECATUR        CLOUDY    76  60  57 SW15      30.11R
PEORIA         CLOUDY    69  63  81 W6        30.10R
SPRINGFIELD    CLOUDY    80  57  45 SW13G20   30.10R HX  80
TAYLORVILLE    NOT AVBL
$$

ILZ033-039-045-046-055>057-062-063-041800-
EAST-CENTRAL ILLINOIS

CITY           SKY/WX    TMP DP  RH WIND       PRES   REMARKS
CHAMPAIGN      CLOUDY    73  62  68 SW13      30.10F
MATTOON        CLOUDY    73  61  65 S10       30.14R
$$

ILZ079-100>102-041800-
SOUTHWEST ILLINOIS

CITY           SKY/WX    TMP DP  RH WIND       PRES   REMARKS
ALTON          PTSUNNY   79 N/A N/A S12       30.12S
BELLEVILLE     PTSUNNY   79  62  54 S3        30.12R HX  81
CAHOKIA*       PTSUNNY   80  59  48 S9        30.12S HX  81
$$

ILZ064>066-069>071-074>076-080>082-084>086-088>090-092>094-041800-
SOUTH-CENTRAL ILLINOIS

CITY           SKY/WX    TMP DP  RH WIND       PRES   REMARKS
CARBONDALE     PTSUNNY   80  59  48 S12       30.17S HX  81
MARION         PTSUNNY   79  59  50 SW14      30.19R HX  80
MT. VERNON     PTSUNNY  N/A N/A N/A S12       30.16F
$$

ILZ067-068-072-073-078-083-087-091-041800-
SOUTHEAST ILLINOIS

CITY           SKY/WX    TMP DP  RH WIND       PRES   REMARKS
LAWRENCEVILLE  PTSUNNY   78  57  48 SW7       30.16S
$$

ABBREVIATIONS USED IN REMARKS
   TC - TEMPERATURE IN CELSIUS
  WCI - WIND CHILL INDEX
   HX - HEAT INDEX
  VSB - VISIBILITY
$$




USA.gov is the U.S. government's official web portal to all federal, state and local government web resources and services.